FW1417 Weather Reports


Display with metric or nautical units.
time (UTC)temp
F
wind
direction
speed
MPH
gust
MPH
rain 1hr
in
rain 24hr
in
rain mn
in
humidity
%
barometer
mb
20260903222228 89 217 1.0 3.0 0.00 0.12 0.12 56 1011.2
20260903221728 89 269 1.0 3.0 0.00 0.12 0.12 56 1011.1
20260903221227 89 263 1.0 3.0 0.00 0.12 0.12 55 1011.1
20260903220727 89 251 2.0 3.0 0.00 0.12 0.12 55 1011.2
20260903220227 89 256 3.0 6.0 0.00 0.12 0.12 55 1011.0
20260903215227 89 263 0.0 3.0 0.00 0.12 0.12 55 1010.9
20260903214727 89 156 1.0 3.0 0.00 0.12 0.12 55 1010.9
20260903214227 89 255 1.0 9.0 0.00 0.12 0.12 55 1010.9
20260903213728 89 250 1.0 9.0 0.00 0.12 0.12 55 1010.9
20260903213229 89 259 3.0 9.0 0.00 0.12 0.12 54 1010.9
20260903212728 89 231 4.0 7.0 0.00 0.12 0.12 54 1010.9
20260903211727 90 276 2.0 7.0 0.00 0.12 0.12 55 1010.8
20260903211227 90 170 3.0 9.0 0.00 0.12 0.12 54 1010.9
20260903210227 90 252 2.0 5.0 0.00 0.12 0.12 54 1011.0
20260903205727 90 176 2.0 5.0 0.00 0.12 0.12 55 1011.0
20260903205227 89 170 2.0 7.0 0.00 0.12 0.12 56 1011.1
20260903204728 89 203 2.0 7.0 0.00 0.12 0.12 57 1011.0
20260903204228 89 167 2.0 5.0 0.00 0.12 0.12 57 1011.0
20260903203727 89 286 2.0 8.0 0.00 0.12 0.12 57 1011.1
20260903203227 89 165 2.0 8.0 0.00 0.12 0.12 56 1011.1
20260903202727 89 250 1.0 6.0 0.00 0.12 0.12 56 1011.1
20260903202227 89 160 1.0 6.0 0.00 0.12 0.12 56 1011.0
20260903201705 89 257 3.0 7.0 0.00 0.12 0.12 56 1011.0
20260903201227 89 242 3.0 8.0 0.00 0.12 0.12 56 1011.1
20260903200728 89 256 2.0 8.0 0.00 0.12 0.12 56 1011.1
20260903200227 89 207 2.0 9.0 0.00 0.12 0.12 56 1011.3
20260903195227 90 224 3.0 7.0 0.00 0.12 0.12 56 1011.3
20260903194227 89 264 3.0 9.0 0.00 0.12 0.12 56 1011.3
20260903193227 89 125 3.0 10.0 0.00 0.13 0.12 57 1011.4
20260903191727 89 252 3.0 9.0 0.00 0.18 0.12 57 1011.6
20260903191227 89 214 2.0 9.0 0.00 0.19 0.12 56 1011.6
20260903190728 89 227 3.0 12.0 0.00 0.20 0.12 57 1011.7
20260903190227 89 263 3.0 12.0 0.00 0.21 0.12 56 1011.8
20260903185727 89 250 5.0 12.0 0.00 0.21 0.12 57 1011.9
20260903185227 89 231 3.0 7.0 0.00 0.21 0.12 57 1011.9
20260903184727 88 119 1.0 10.0 0.00 0.21 0.12 58 1011.9
20260903183727 88 150 5.0 8.0 0.00 0.21 0.12 58 1012.0
20260903183226 88 153 3.0 10.0 0.00 0.21 0.12 58 1012.0
20260903182727 88 223 2.0 10.0 0.00 0.21 0.12 59 1012.0
20260903182226 88 263 4.0 10.0 0.00 0.21 0.12 58 1012.1
20260903181727 87 208 5.0 10.0 0.00 0.21 0.12 59 1012.1
20260903180726 87 240 1.0 13.0 0.00 0.21 0.12 61 1012.1
20260903175727 86 254 3.0 10.0 0.00 0.21 0.12 62 1012.2
20260903175227 86 244 6.0 10.0 0.00 0.21 0.12 61 1012.5
20260903174227 86 45 4.0 12.0 0.00 0.21 0.12 62 1012.5
20260903173227 86 280 4.0 10.0 0.00 0.21 0.12 61 1012.7
20260903172727 86 286 3.0 10.0 0.00 0.21 0.12 62 1012.8
20260903171727 85 246 5.0 12.0 0.00 0.21 0.12 62 1013.1
20260903171227 85 32 3.0 10.0 0.00 0.21 0.12 63 1013.0
20260903170727 85 263 3.0 10.0 0.00 0.21 0.12 64 1013.1
20260903170227 84 208 4.0 10.0 0.00 0.21 0.12 64 1013.1
20260903165727 84 242 2.0 12.0 0.00 0.21 0.12 65 1013.2
20260903165227 84 161 5.0 12.0 0.00 0.21 0.12 65 1013.2
20260903164726 84 188 3.0 12.0 0.00 0.21 0.12 65 1013.4
20260903164226 84 251 3.0 9.0 0.00 0.21 0.12 65 1013.2
20260903163727 83 162 3.0 8.0 0.00 0.21 0.12 66 1013.4
20260903162727 83 247 3.0 10.0 0.00 0.21 0.12 66 1013.4
20260903162227 83 277 5.0 10.0 0.00 0.21 0.12 66 1013.4
20260903161227 82 165 5.0 10.0 0.00 0.21 0.12 68 1013.5
20260903155727 81 234 5.0 12.0 0.00 0.21 0.12 70 1013.8
20260903155227 81 124 5.0 14.0 0.00 0.21 0.12 70 1013.9
20260903154727 80 224 5.0 14.0 0.00 0.21 0.12 71 1014.0
20260903154227 80 265 4.0 10.0 0.00 0.21 0.12 72 1014.1
20260903153227 80 227 6.0 12.0 0.00 0.21 0.12 72 1014.3
20260903152726 79 235 3.0 12.0 0.00 0.21 0.12 73 1014.2
20260903152227 79 0 3.0 9.0 0.00 0.21 0.12 74 1014.2
20260903151727 79 263 3.0 12.0 0.00 0.21 0.12 74 1014.1
20260903151226 78 240 5.0 12.0 0.00 0.21 0.12 75 1014.2
20260903150727 78 0 4.0 9.0 0.00 0.21 0.12 75 1014.1
20260903150227 78 0 3.0 12.0 0.00 0.21 0.12 76 1014.1
20260903145727 78 0 4.0 12.0 0.00 0.21 0.12 77 1014.2
20260903145227 78 0 5.0 12.0 0.00 0.21 0.12 77 1014.3
20260903144226 77 195 4.0 12.0 0.00 0.21 0.12 79 1014.1
20260903143727 77 214 3.0 7.0 0.00 0.21 0.12 80 1014.2
20260903143228 77 259 2.0 7.0 0.00 0.21 0.12 80 1014.1
20260903142726 76 248 2.0 7.0 0.00 0.21 0.12 81 1014.2
20260903142227 76 217 3.0 8.0 0.00 0.21 0.12 81 1014.1
20260903141727 76 180 3.0 12.0 0.00 0.21 0.12 82 1014.2
20260903141226 76 314 5.0 12.0 0.00 0.21 0.12 83 1014.2
20260903140727 75 265 3.0 8.0 0.00 0.21 0.12 84 1014.3
20260903140227 75 207 2.0 8.0 0.00 0.21 0.12 85 1014.2
20260903135727 74 254 3.0 8.0 0.00 0.21 0.12 86 1014.3
20260903135226 74 146 3.0 7.0 0.00 0.21 0.12 85 1014.4
20260903134726 74 218 3.0 6.0 0.00 0.21 0.12 86 1014.2
20260903134226 74 180 2.0 9.0 0.00 0.21 0.12 86 1014.3
20260903133226 73 202 2.0 9.0 0.00 0.21 0.12 87 1014.4
20260903132227 73 199 2.0 7.0 0.00 0.21 0.12 88 1014.7
20260903131726 73 239 3.0 7.0 0.00 0.21 0.12 88 1014.6
20260903131226 73 211 2.0 10.0 0.00 0.21 0.12 88 1014.4
20260903130727 72 178 3.0 10.0 0.00 0.21 0.12 88 1014.3
20260903130227 72 148 2.0 8.0 0.00 0.21 0.12 89 1014.6
20260903125726 72 158 1.0 8.0 0.00 0.21 0.12 89 1014.7
20260903125226 72 163 3.0 8.0 0.00 0.21 0.12 90 1014.6
20260903124727 72 202 3.0 6.0 0.00 0.21 0.12 90 1014.5
20260903124227 72 219 2.0 6.0 0.00 0.21 0.12 90 1014.6
20260903123226 71 155 2.0 5.0 0.00 0.21 0.12 91 1014.7
20260903122726 71 243 2.0 5.0 0.00 0.21 0.12 91 1014.6
20260903121226 71 244 2.0 3.0 0.00 0.21 0.12 91 1014.7
20260903120226 71 171 0.0 3.0 0.00 0.21 0.12 92 1014.8
20260903115726 71 180 0.0 3.0 0.00 0.21 0.12 92 1014.7
20260903115227 71 165 1.0 3.0 0.00 0.21 0.12 92 1014.7
20260903114726 70 212 2.0 5.0 0.00 0.21 0.12 92 1015.0
20260903114226 70 253 2.0 5.0 0.00 0.21 0.12 92 1014.9
20260903113726 70 236 2.0 5.0 0.00 0.21 0.12 92 1014.8
20260903113226 70 243 1.0 3.0 0.00 0.21 0.12 92 1014.6
20260903112726 70 200 1.0 3.0 0.00 0.21 0.12 92 1014.7
20260903112226 70 248 1.0 3.0 0.00 0.21 0.12 92 1014.8
20260903111726 70 194 0.0 5.0 0.00 0.21 0.12 92 1014.7
20260903111227 70 263 2.0 6.0 0.00 0.21 0.12 92 1014.7
20260903110226 70 202 1.0 3.0 0.00 0.21 0.12 92 1014.6
20260903105726 70 190 1.0 3.0 0.00 0.21 0.12 92 1014.6
20260903105226 70 161 0.0 2.0 0.00 0.21 0.12 92 1014.7
20260903104226 70 187 1.0 5.0 0.00 0.21 0.12 93 1014.8
20260903103726 70 194 1.0 5.0 0.00 0.21 0.12 93 1014.8
20260903103226 70 247 1.0 6.0 0.00 0.21 0.12 93 1014.7
20260903102727 70 199 2.0 6.0 0.00 0.21 0.12 93 1014.7
20260903102226 70 265 2.0 3.0 0.00 0.21 0.12 93 1014.6
20260903101726 70 133 1.0 6.0 0.00 0.21 0.12 93 1014.8
20260903101226 70 199 2.0 6.0 0.00 0.21 0.12 93 1014.7
20260903100226 70 221 1.0 9.0 0.00 0.21 0.12 93 1014.5
20260903095726 70 163 2.0 9.0 0.00 0.21 0.12 93 1014.6
20260903095226 70 232 2.0 9.0 0.00 0.21 0.12 93 1014.6
20260903094726 70 217 1.0 7.0 0.00 0.21 0.12 93 1014.3
20260903094226 70 159 2.0 7.0 0.00 0.21 0.12 93 1014.2
20260903093726 70 192 2.0 5.0 0.00 0.21 0.12 93 1014.1
20260903093226 70 169 1.0 5.0 0.00 0.21 0.12 93 1014.2
20260903092726 70 255 1.0 5.0 0.00 0.21 0.12 93 1014.5
20260903092226 70 246 1.0 5.0 0.00 0.21 0.12 93 1014.5
20260903091726 70 217 3.0 9.0 0.00 0.21 0.12 93 1014.3
20260903091226 71 187 2.0 9.0 0.00 0.21 0.12 93 1014.3
20260903090726 71 229 3.0 7.0 0.00 0.21 0.12 93 1014.2
20260903085726 70 177 3.0 7.0 0.00 0.21 0.12 93 1014.1
20260903085226 70 246 2.0 12.0 0.00 0.21 0.12 93 1014.0
20260903084725 70 137 5.0 12.0 0.00 0.21 0.12 93 1013.8
20260903084225 70 165 5.0 12.0 0.01 0.21 0.12 93 1013.7
20260903083726 70 126 6.0 12.0 0.01 0.21 0.12 93 1013.8
20260903083226 70 189 5.0 9.0 0.01 0.21 0.12 93 1014.4
20260903082726 70 181 5.0 9.0 0.01 0.21 0.12 93 1015.0
20260903082226 70 178 3.0 10.0 0.02 0.21 0.12 92 1015.1
20260903081727 70 165 2.0 10.0 0.02 0.21 0.12 92 1015.2
20260903081226 70 161 3.0 8.0 0.02 0.21 0.12 92 1015.3
20260903080726 70 223 1.0 3.0 0.03 0.21 0.12 92 1015.3
20260903080226 70 255 1.0 3.0 0.03 0.21 0.12 92 1015.3
20260903075726 70 265 1.0 3.0 0.04 0.21 0.12 92 1015.0
20260903075226 70 216 1.0 3.0 0.04 0.21 0.12 92 1014.8
20260903074726 70 133 1.0 3.0 0.05 0.21 0.12 92 1014.7
20260903073726 70 229 1.0 7.0 0.05 0.20 0.11 92 1014.8
20260903073226 70 145 3.0 7.0 0.05 0.20 0.11 92 1014.6
20260903070726 69 144 1.0 6.0 0.04 0.18 0.09 92 1015.3
20260903070226 69 167 3.0 6.0 0.04 0.18 0.09 92 1015.5
20260903065226 69 214 1.0 3.0 0.04 0.17 0.08 91 1015.7
20260903064726 69 235 0.0 2.0 0.03 0.16 0.07 91 1015.8
20260903063726 69 235 0.0 1.0 0.03 0.15 0.06 91 1015.8
20260903063226 69 236 0.0 1.0 0.04 0.15 0.06 91 1015.6
20260903062726 69 235 0.0 2.0 0.03 0.14 0.05 91 1015.6
20260903062226 69 235 0.0 2.0 0.04 0.14 0.05 91 1015.6
20260903061726 69 236 0.0 2.0 0.04 0.14 0.05 91 1015.6
20260903061226 69 235 0.0 1.0 0.04 0.14 0.05 91 1015.6
20260903055726 69 235 1.0 3.0 0.04 0.14 0.05 91 1016.0
20260903055225 69 164 2.0 6.0 0.03 0.13 0.04 91 1015.8
20260903054725 69 150 2.0 6.0 0.04 0.13 0.04 91 1016.0
20260903054226 69 134 2.0 3.0 0.03 0.12 0.03 90 1015.9
20260903053225 69 82 0.0 2.0 0.02 0.11 0.02 90 1016.3
20260903052726 69 42 1.0 2.0 0.02 0.11 0.02 90 1016.4
20260903052225 69 41 1.0 2.0 0.01 0.10 0.01 90 1016.5
20260903051725 69 346 0.0 3.0 0.01 0.10 0.01 89 1017.0
20260903051226 69 346 0.0 6.0 0.01 0.10 0.01 89 1017.5
20260903050725 69 303 2.0 6.0 0.01 0.10 0.01 89 1017.8
20260903050226 70 349 3.0 5.0 0.01 0.10 0.01 89 1018.1
20260903045726 70 295 1.0 7.0 0.01 0.10 0.01 89 1017.9
20260903044727 70 273 1.0 3.0 0.00 0.09 0.00 88 1018.0
20260903044226 70 264 1.0 3.0 0.00 0.09 0.00 88 1017.5
20260903043725 70 302 1.0 3.0 0.00 0.09 0.00 88 1017.5
20260903043225 70 350 1.0 3.0 0.00 0.09 0.00 88 1017.5
20260903041728 71 252 2.0 7.0 0.00 0.09 0.00 87 1017.9
20260903040728 71 167 1.0 3.0 0.00 0.09 0.00 87 1017.7
20260903040228 71 167 1.0 2.0 0.00 0.09 0.00 87 1017.3
20260903035727 71 171 0.0 1.0 0.00 0.09 0.09 87 1017.4
20260903035228 71 171 0.0 0.0 0.00 0.09 0.09 87 1017.6
20260903034728 71 171 0.0 0.0 0.00 0.09 0.09 87 1017.4
20260903034228 71 171 0.0 1.0 0.00 0.09 0.09 87 1017.6
20260903033728 71 171 0.0 1.0 0.00 0.09 0.09 87 1017.6
20260903033227 71 171 0.0 2.0 0.00 0.09 0.09 87 1017.5
20260903032728 71 171 1.0 2.0 0.00 0.09 0.09 86 1017.3
20260903031228 71 171 0.0 3.0 0.00 0.09 0.09 86 1017.1
20260903030728 71 95 0.0 1.0 0.00 0.09 0.09 86 1017.3
20260903030229 71 95 0.0 3.0 0.00 0.09 0.09 86 1017.3
20260903025728 71 95 0.0 9.0 0.00 0.09 0.09 86 1017.4
20260903025227 71 104 2.0 9.0 0.00 0.09 0.09 86 1017.4
20260903023834 70 95 1.0 3.0 0.00 0.09 0.09 86 1017.5
20260903023227 70 75 2.0 3.0 0.00 0.09 0.09 86 1017.6
20260903022228 70 50 1.0 5.0 0.00 0.09 0.09 86 1018.1
20260903021228 70 74 1.0 5.0 0.00 0.09 0.09 86 1017.9
20260903020728 70 85 2.0 6.0 0.00 0.09 0.09 86 1017.8
20260903020227 70 92 1.0 6.0 0.00 0.09 0.09 85 1017.6
20260903015728 70 19 2.0 6.0 0.00 0.09 0.09 85 1017.7
20260903015227 70 180 2.0 6.0 0.00 0.09 0.09 85 1017.7
20260903014728 70 234 1.0 6.0 0.00 0.09 0.09 85 1017.7
20260903014228 70 75 2.0 5.0 0.00 0.09 0.09 85 1018.0
20260903013728 70 68 1.0 3.0 0.00 0.09 0.09 85 1018.2
20260903013227 70 86 1.0 3.0 0.00 0.09 0.09 85 1018.1
20260903012729 70 60 1.0 5.0 0.00 0.09 0.09 84 1018.2
20260903012228 70 77 2.0 5.0 0.00 0.09 0.09 84 1018.2
20260903011727 70 140 2.0 7.0 0.00 0.09 0.09 84 1018.3
20260903011227 70 72 3.0 7.0 0.00 0.09 0.09 84 1018.4
20260903010228 70 85 3.0 7.0 0.00 0.09 0.09 84 1018.4
20260903005727 70 47 3.0 7.0 0.00 0.09 0.09 84 1018.3
20260903004728 70 65 2.0 3.0 0.00 0.09 0.09 84 1018.6
20260903004227 70 78 1.0 3.0 0.00 0.09 0.09 84 1018.8
20260903003728 70 96 1.0 3.0 0.00 0.09 0.09 84 1018.8
20260903003229 70 32 1.0 5.0 0.00 0.09 0.09 84 1018.7
20260903002728 70 99 1.0 5.0 0.00 0.09 0.09 83 1018.6
20260903002229 70 60 1.0 6.0 0.00 0.09 0.09 84 1018.4
20260903001728 70 118 2.0 6.0 0.00 0.09 0.09 84 1018.3
20260903001227 70 77 1.0 3.0 0.00 0.09 0.09 84 1018.2
20260903000228 70 67 2.0 7.0 0.00 0.09 0.09 83 1018.1
20260902235728 70 130 1.0 6.0 0.00 0.09 0.09 83 1018.0
20260902235227 70 63 1.0 3.0 0.00 0.09 0.09 84 1018.0
20260902234728 70 76 2.0 3.0 0.00 0.09 0.09 83 1018.1
20260902234227 70 67 1.0 5.0 0.00 0.09 0.09 83 1018.0
20260902233727 70 99 1.0 8.0 0.00 0.09 0.09 83 1017.9
20260902233228 70 99 2.0 8.0 0.00 0.10 0.09 83 1017.9
20260902232727 70 57 2.0 8.0 0.00 0.10 0.09 83 1017.9
20260902232227 70 227 3.0 8.0 0.00 0.10 0.09 83 1017.9
20260902231728 70 76 1.0 6.0 0.00 0.10 0.09 83 1017.8
20260902231228 70 84 2.0 10.0 0.00 0.10 0.09 83 1017.9
20260902230728 70 62 4.0 10.0 0.00 0.10 0.09 83 1017.9
20260902230227 70 111 3.0 8.0 0.00 0.11 0.09 83 1017.9
20260902225728 71 58 2.0 8.0 0.00 0.11 0.09 83 1017.9
20260902225228 70 103 2.0 9.0 0.00 0.12 0.09 82 1018.0
20260902224228 71 43 3.0 9.0 0.00 0.14 0.09 82 1018.4
20260902223727 71 126 1.0 7.0 0.00 0.15 0.09 83 1018.4
20260902223227 71 103 3.0 7.0 0.00 0.15 0.09 82 1018.4